I5EKX-13 Weather Reports


time (UTC)temp
C
wind
direction
speed
KPH
gust
KPH
rain 1hr
cm
rain 24hr
cm
rain mn
cm
humidity
%
barometer
mb
20260507203936 13 0.0 0.0 0.00 0.00 0.00 82 1008.8
20260507201932 13 0.0 0.0 0.00 0.00 0.00 83 1008.9
20260507195927 13 0.0 0.0 0.00 0.00 0.00 84 1008.8
20260507193923 13 0.0 0.0 0.00 0.00 0.00 82 1008.7
20260507191919 13 0.0 0.0 0.00 0.00 0.00 80 1008.8
20260507185915 14 0.0 0.0 0.00 0.00 0.00 80 1008.7
20260507183911 15 0.0 0.0 0.00 0.00 0.00 77 1008.8
20260507181906 17 0.0 0.0 0.00 0.00 0.00 68 1008.7
20260507175902 18 0.0 0.0 0.00 0.00 0.00 62 1008.5
20260507173858 18 0.0 0.0 0.00 0.00 0.00 60 1008.5
20260507171854 18 0.0 0.0 0.00 0.00 0.00 59 1008.5
20260507165849 19 0.0 0.0 0.00 0.00 0.00 58 1008.4
20260507163845 19 0.0 0.0 0.00 0.00 0.00 54 1008.5
20260507151828 20 0.0 0.0 0.00 0.00 0.00 50 1008.6
20260507145824 20 0.0 0.0 0.00 0.00 0.00 48 1008.9
20260507143820 21 0.0 0.0 0.00 0.00 0.00 45 1008.9
20260507141815 22 0.0 0.0 0.00 0.00 0.00 46 1009.1
20260507135811 23 0.0 0.0 0.00 0.00 0.00 44 1009.3
20260507125758 24 0.0 0.0 0.00 0.00 0.00 49 1009.8
20260507121750 24 0.0 0.0 0.00 0.00 0.00 45 1009.7
20260507113741 24 0.0 0.0 0.00 0.00 0.00 44 1009.9
20260507111737 23 0.0 0.0 0.00 0.00 0.00 44 1010.0
20260507105733 23 0.0 0.0 0.00 0.00 0.00 45 1010.1
20260507101724 24 0.0 0.0 0.00 0.00 0.00 46 1010.4
20260507093716 22 0.0 0.0 0.00 0.00 0.00 51 1010.3
20260507091711 23 0.0 0.0 0.00 0.00 0.00 50 1010.2
20260507085707 21 0.0 0.0 0.00 0.00 0.00 50 1010.1
20260507083703 22 0.0 0.0 0.00 0.00 0.00 52 1010.2
20260507081658 21 0.0 0.0 0.00 0.00 0.00 59 1010.2
20260507075654 21 0.0 0.0 0.00 0.00 0.00 60 1010.2
20260507073649 18 0.0 0.0 0.00 0.00 0.00 69 1010.1
20260507071644 18 0.0 0.0 0.00 0.00 0.00 75 1010.0
20260507065640 18 0.0 0.0 0.00 0.00 0.00 77 1009.8
20260507063636 16 0.0 0.0 0.00 0.00 0.00 83 1009.8
20260507053623 14 0.0 0.0 0.00 0.00 0.00 86 1009.3
20260507045614 12 0.0 0.0 0.00 0.00 0.00 87 1009.0
20260507043610 12 0.0 0.0 0.00 0.00 0.00 87 1008.8
20260507041606 11 0.0 0.0 0.00 0.00 0.00 86 1008.6
20260507035602 11 0.0 0.0 0.00 0.00 0.00 88 1008.6
20260507033557 10 0.0 0.0 0.00 0.00 0.00 87 1008.6
20260507031553 11 0.0 0.0 0.00 0.00 0.00 85 1008.7
20260507025549 11 0.0 0.0 0.00 0.00 0.00 88 1008.7
20260507023545 11 0.0 0.0 0.00 0.00 0.00 87 1008.7
20260507021540 11 0.0 0.0 0.00 0.00 0.00 87 1008.7
20260507015536 11 0.0 0.0 0.00 0.00 0.00 88 1008.7
20260507013532 11 0.0 0.0 0.00 0.00 0.00 87 1008.7
20260507011528 11 0.0 0.0 0.00 0.00 0.00 88 1008.6
20260507005523 12 0.0 0.0 0.00 0.00 0.00 88 1008.7
20260507003519 12 0.0 0.0 0.00 0.00 0.00 89 1008.7
20260507001515 12 0.0 0.0 0.00 0.00 0.00 87 1008.7
20260506235510 13 0.0 0.0 0.00 0.00 0.00 86 1008.8
20260506233505 13 0.0 0.0 0.00 0.00 0.00 86 1008.7
20260506231501 13 0.0 0.0 0.00 0.00 0.00 87 1008.8
20260506225456 13 0.0 0.0 0.00 0.00 0.00 86 1008.8
20260506223451 13 0.0 0.0 0.00 0.00 0.00 87 1008.9
20260506221446 13 0.0 0.0 0.00 0.00 0.00 87 1008.7
20260506215441 15 0.0 0.0 0.00 0.00 0.00 85 1008.7
20260506213437 15 0.0 0.0 0.00 0.00 0.00 85 1008.6
20260506211432 15 0.0 0.0 0.00 0.00 0.00 87 1008.7